TimeEDT,TemperatureF,Dew PointF,Humidity,Sea Level PressureIn,VisibilityMPH,Wind Direction,Wind SpeedMPH,Gust SpeedMPH,PrecipitationIn,Events,Conditions,WindDirDegrees,DateUTC
12:53 AM,73.9,62.1,66,29.94,10.0,North,4.6,-,N/A,,Clear,360,2012-05-11 04:53:00
2:53 AM,73.9,63.0,68,29.92,10.0,Calm,Calm,-,N/A,,Clear,0,2012-05-11 06:53:00
3:53 AM,73.9,63.0,68,29.92,10.0,Calm,Calm,-,N/A,,Clear,0,2012-05-11 07:53:00
4:53 AM,73.9,64.0,71,29.92,10.0,NNW,3.5,-,N/A,,Clear,340,2012-05-11 08:53:00
5:53 AM,73.0,64.9,76,29.94,10.0,Calm,Calm,-,N/A,,Clear,0,2012-05-11 09:53:00
6:53 AM,73.0,64.9,76,29.95,10.0,NNE,4.6,-,N/A,,Clear,30,2012-05-11 10:53:00
7:53 AM,75.0,66.9,76,29.97,10.0,East,12.7,-,N/A,,Partly Cloudy,100,2012-05-11 11:53:00
8:53 AM,75.9,69.1,79,29.99,10.0,East,11.5,-,N/A,,Partly Cloudy,100,2012-05-11 12:53:00
9:53 AM,79.0,69.1,72,30.01,10.0,East,12.7,-,N/A,,Scattered Clouds,100,2012-05-11 13:53:00
10:53 AM,82.0,68.0,62,30.00,10.0,ESE,11.5,-,N/A,,Partly Cloudy,120,2012-05-11 14:53:00
11:53 AM,84.0,66.0,55,30.00,10.0,ESE,8.1,-,N/A,,Clear,110,2012-05-11 15:53:00
12:53 PM,84.9,66.9,55,29.99,10.0,East,8.1,-,N/A,,Clear,90,2012-05-11 16:53:00
1:53 PM,86.0,66.0,51,29.99,10.0,NE,6.9,27.6,N/A,,Clear,40,2012-05-11 17:53:00
2:53 PM,86.0,66.0,51,29.98,10.0,ENE,6.9,-,N/A,,Clear,60,2012-05-11 18:53:00
3:53 PM,89.1,64.9,45,29.97,10.0,ENE,5.8,-,N/A,,Clear,60,2012-05-11 19:53:00
4:53 PM,88.0,64.0,45,29.97,10.0,ENE,6.9,-,N/A,,Clear,60,2012-05-11 20:53:00
5:53 PM,90.0,64.9,43,29.96,10.0,NE,4.6,-,N/A,,Scattered Clouds,40,2012-05-11 21:53:00
6:53 PM,86.0,64.0,48,29.98,10.0,North,8.1,-,N/A,,Overcast,350,2012-05-11 22:53:00
7:53 PM,84.9,66.0,53,30.01,10.0,ESE,12.7,-,N/A,,Mostly Cloudy,120,2012-05-11 23:53:00
8:00 PM,84.2,66.2,55,30.01,10.0,ESE,16.1,-,N/A,,Overcast,120,2012-05-12 00:00:00
8:53 PM,82.0,64.9,56,30.04,10.0,ESE,17.3,-,N/A,,Mostly Cloudy,120,2012-05-12 00:53:00
9:53 PM,80.1,62.1,54,30.09,10.0,ESE,20.7,-,N/A,,Overcast,110,2012-05-12 01:53:00
10:53 PM,78.1,62.1,58,30.12,10.0,ESE,18.4,-,N/A,,Partly Cloudy,110,2012-05-12 02:53:00
11:53 PM,77.0,62.1,60,30.12,10.0,East,18.4,-,N/A,,Clear,100,2012-05-12 03:53:00